Miscellaneous Local Product
Issued by NWS Hastings, NE

Home | Current Version | Previous Version | Text Only | Print | Product List | Glossary On
Versions: 1 2 3 4 5 6 7 8 9 10 11 12 13 14 15 16 17 18 19 20 21 22 23 24 25 26 27 28 29 30 31 32 33 34 35 36 37 38 39 40 41 42 43 44 45 46 47 48 49 50
000
AXUS43 KGID 010602
MISGRI

GID CWA HOURLY WEATHER ROUNDUP
NATIONAL WEATHER SERVICE HASTINGS NE
100 AM CDT THU SEP 01 2016

NOTE: "FAIR" INDICATES FEW OR NO CLOUDS BELOW 12,000 FEET WITH NO
SIGNIFICANT WEATHER AND/OR OBSTRUCTIONS TO VISIBILITY.

...SOUTH CENTRAL NEBRASKA...

CITY           SKY/WX    TMP DP  RH WIND       PRES   REMARKS
GRAND ISLAND   FAIR      58  57  97 NE3       30.23S
HASTINGS       FAIR      60  56  86 CALM      30.23S
KEARNEY        FAIR      59  55  88 NE3       30.23R
ORD            CLEAR     56  54  93 CALM      30.23R
YORK           FAIR      57  57 100 CALM      30.22S
AURORA         FAIR      58  58 100 E5        30.22S
LEXINGTON      CLEAR     59  57  92 CALM      30.24S
HOLDREGE       FAIR      60  56  88 E3        30.23S
HEBRON         FAIR      59  58  97 CALM      30.20R

...NEBRASKA PANHANDLE...

CITY           SKY/WX    TMP DP  RH WIND       PRES   REMARKS
CHADRON        CLEAR     69  59  70 S22G31    30.18S
ALLIANCE       CLEAR     63  60  90 S12       30.24F
SCOTTSBLUFF    CLEAR     62  59  90 E9        30.23F
SIDNEY         MOCLDY    63  61  93 S12       30.30R

...WESTERN AND NORTH CENTRAL NEBRASKA...

CITY           SKY/WX    TMP DP  RH WIND       PRES   REMARKS
VALENTINE      CLEAR     64  55  72 S9        30.23R
AINSWORTH      CLEAR     60  56  85 S6        30.24S
ONEILL         CLEAR     62  58  88 S3        30.24S
BROKEN BOW     CLEAR     53  53 100 CALM      30.24S
IMPERIAL       CLEAR     62  60  93 CALM      30.26S
NORTH PLATTE   CLEAR     59  58  96 E3        30.25S FOG
MCCOOK         MOCLDY    63  62  97 E3        30.23S FOG

...EASTERN NEBRASKA...

CITY           SKY/WX    TMP DP  RH WIND       PRES   REMARKS
NORFOLK        FAIR      56  54  93 CALM      30.22S
SO SIOUX CITY  FAIR      62  59  90 CALM      30.21R
TEKAMAH        FAIR      59  57  93 N7        30.20R
COLUMBUS       FAIR      57  48  72 CALM      30.22S
ALBION         FAIR      57  55  92 CALM      30.23S
OMAHA EPPLEY   FAIR      62  58  86 N7        30.19S
MILLARD        FAIR     N/A N/A N/A CALM      30.19S
LINCOLN        FAIR      59  57  93 N5        30.20S
NEBRASKA CITY  FAIR      63  60  90 N3        30.19S
BEATRICE       FAIR      60  58  93 NE3       30.18F
FALLS CITY     FAIR      64  61  90 N5        30.16S

...NORTHERN KANSAS...

CITY           SKY/WX    TMP DP  RH WIND       PRES   REMARKS
GOODLAND       CLOUDY    65  63  93 SE6       30.26S
HILL CITY      FOG       61  60  97 CALM      30.21S VSB 1/4
NORTON         CLEAR     63  59  88 CALM      30.22R
SMITH CENTER   CLEAR     61  57  88 CALM      30.20S
BELOIT         CLEAR     54  54 100 N3        30.17S
HAYS           FAIR      66  57  72 NE5       30.19F
RUSSELL        FOG       65  64  97 NE6       30.18S VSB 1/2
CONCORDIA      FAIR      62  58  86 CALM      30.18S
SALINA         FAIR      68  63  84 NE5       30.16S
TOPEKA         FAIR      63  60  90 CALM      30.14S



USA.gov is the U.S. government's official web portal to all federal, state and local government web resources and services.